User: anonymous   Login
Location: Castiglione Fibocchi
(43.5333°N, 11.7667°E)
Time: 05:33:32
(UTC+00:00)
Language:

Cosmos 2227 Rocket - Orbit

View from above orbital plane
View from above orbital plane
View from above satellite
View from above satellite

Ground track
Ground track

The orbit data is extracted from the following two-line orbital elements,

1 22285U 92093B   20304.31906440  .00000214  00000-0  13474-3 0  9997
2 22285  71.0203 149.5823 0002992  21.7878 338.3372 14.15051587436695
Epoch (UTC): 30 October 2020 07:39:27
Eccentricity: 0.0002992
inclination: 71.0203°
perigee height: 840 km
apogee height: 844 km
right ascension of ascending node: 149.5823°
argument of perigee: 21.7878°
revolutions per day: 14.15051587
mean anomaly at epoch: 338.3372°
orbit number at epoch: 43669

The dashed part of the orbit path shows where the satellite is in the earth's shadow,  

DLR